Regional Weather Roundup
Issued by NWS

Home | Current Version | Previous Version | Graphics & Text | Print | Product List | Glossary On
Versions: 1 2 3 4 5 6 7 8 9 10 11 12 13 14 15 16 17 18 19 20 21 22 23 24 25 26 27 28 29 30 31 32 33 34 35 36 37 38 39 40 41 42 43 44 45 46 47 48 49 50
000
ASUS43 KLOT 071121
RWRIL

ILLINOIS REGIONAL WEATHER ROUNDUP
NATIONAL WEATHER SERVICE CHICAGO/ROMEOVILLE IL
600 AM CDT TUE JUL 07 2015

NOTE: "FAIR" INDICATES FEW OR NO CLOUDS BELOW 12,000 FEET WITH NO
SIGNIFICANT WEATHER AND/OR OBSTRUCTIONS TO VISIBILITY.

* THESE STATIONS ARE NOT UNDER NWS QUALITY CONTROL. THEY ALSO MAY NOT
  REPORT WEATHER SUCH AS PRECIPITATION OR FOG.

ILZ001-002-007-009-015-016-024-071200-
NORTHWEST ILLINOIS

CITY           SKY/WX    TMP DP  RH WIND       PRES   REMARKS
MOLINE         MOCLDY    63  57  81 N6        29.95R HAZE
STERLING*      CLOUDY    63  59  88 N9        29.95R
SAVANNA*         N/A     60  57  89 N7        29.97R FOG
$$

ILZ003-004-008-010-011-017-018-071200-
NORTH CENTRAL ILLINOIS

CITY           SKY/WX    TMP DP  RH WIND       PRES   REMARKS
ROCKFORD       CLOUDY    63  57  81 NE13      29.95R HAZE
FREEPORT*      CLOUDY    61  57  87 CALM      29.98R FOG
ROCHELLE*      CLOUDY    61  59  93 N12G17    29.94R FOG
DE KALB*       LGT RAIN  58  57  96 NE16      29.93R
PERU*          DRIZZLE   64  62  94 N13       29.92R
$$

ILZ005-006-012>014-019>023-071200-
NORTHEAST ILLINOIS

CITY           SKY/WX    TMP DP  RH WIND       PRES   REMARKS
CHICAGO-OHARE  RAIN      59  57  93 N18       29.91R FOG
CHICAGO-MIDWAY LGT RAIN  62  57  83 N17G24    29.90R FOG
AURORA         LGT RAIN  61  57  87 NE14G23   29.92R FOG
LANSING*       LGT RAIN  60  57  91 N16G22    29.91R
JOLIET*        LGT RAIN  68  67  96 N6        29.89R
WAUKEGAN       LGT RAIN  57  56  96 N12G17    29.92R FOG
DUPAGE AIRPORT RAIN      60  57  89 N12       29.92R FOG
KANKAKEE*      DRIZZLE   71  70  97 SW3       29.88R
WHEELING       LGT RAIN  59  57  93 N15G23    29.92R FOG
MORRIS*        RAIN      65  64  96 N6        29.86R
ROMEOVILLE*    RAIN      61  59  95 NE22      29.90R
NORTHERLY ISL    N/A     59  57  93 MISG        N/A
$$

LMZ740>746-071200-
SOUTHERN LAKE MICHIGAN

STATION/POSITION SKY/WX   TEMP    WIND        PRES    VSBY  WAVE
                          AIR SEA DIR/SP/G                  HT/PER
                          (F)     (DEG/KT/KT) (MB)    (MI)  (FT/S)
HARRISON CRIB              59     350/ 27/ 33   N/A
BURNHAM HARBOR             59     350/ 20/ 23   N/A
CALUMET HARBOR             61     330/ 12/ 17   N/A
BURNS HARBOR               62     360/ 20     1012.2R
MICHIGAN CITY              63     330/ 26/ 30   N/A
MICHIGAN CITY 6N           62 67  360/ 19/ 23   N/A           1
ST. JOSEPH                 62 66   10/ 17/ 21   N/A           1/ 2
$$

ILZ025>027-034>036-040-047-049-050-058-095>099-071200-
WEST-CENTRAL ILLINOIS

CITY           SKY/WX    TMP DP  RH WIND       PRES   REMARKS
QUINCY         LGT RAIN  64  62  93 N12       29.93R FOG
GALESBURG*     CLOUDY    62  60  93 N8        29.94S FOG
MACOMB*        RAIN      62  61  98 N12G18    29.96S
JACKSONVILLE*  LGT RAIN  73  71  95 CALM      29.87F
PITTSFIELD*    LGT RAIN  69  67  94 N10G17    29.91R
$$

ILZ028>032-037-038-041>044-048-051>054-059>061-071200-
CENTRAL ILLINOIS

CITY           SKY/WX    TMP DP  RH WIND       PRES   REMARKS
PONTIAC        DRIZZLE   72  72  99 SW3       29.90R
BLOOMINGTON    HVY RAIN  72  72 100 W8        29.91S FOG
DECATUR        LGT RAIN  72  70  93 NW7       29.88F
PEORIA         LGT RAIN  66  63  90 N7        29.91R FOG
LACON*         RAIN      64  62  95 N6        29.91R
LINCOLN*       DRIZZLE   73  71  95 CALM      29.88F
SPRINGFIELD    LGT RAIN  73  70  90 CALM      29.88S
TAYLORVILLE    LGT RAIN  70  70 100 CALM      29.88S
$$

ILZ033-039-045-046-055>057-062-063-071200-
EAST-CENTRAL ILLINOIS

CITY           SKY/WX    TMP DP  RH WIND       PRES   REMARKS
CHAMPAIGN      HVY RAIN  72  71  97 W9        29.90S VSB 1
DANVILLE*      RAIN      74  73  94 SW8       29.86S
RANTOUL*       RAIN      74  72  95 W6        29.89S
MATTOON        CLOUDY    75  73  93 S8        29.88S
PARIS*         MOCLDY    75  73  95 SW8       29.90S FOG
$$

ILZ079-100>102-071200-
SOUTHWEST ILLINOIS

CITY           SKY/WX    TMP DP  RH WIND       PRES   REMARKS
ALTON          DRIZZLE   74  74 100 W3        29.90R
BELLEVILLE     CLOUDY    77  75  95 SW6       29.89R
CAHOKIA*       CLOUDY    77  69  76 W8        29.90R
SPARTA*        CLOUDY    76  73  89 SW8       29.93R
$$

ILZ064>066-069>071-074>076-080>082-084>086-088>090-092>094-071200-
SOUTH-CENTRAL ILLINOIS

CITY           SKY/WX    TMP DP  RH WIND       PRES   REMARKS
CARBONDALE     CLOUDY    77  72  84 SW9       29.93R
CAIRO*         MOCLDY    76  75  95 S10G16    29.96R
EFFINGHAM*     CLOUDY    75  71  87 SE7       29.91S
MARION         CLOUDY    77  73  88 SW9       29.94S
MT. VERNON     CLOUDY    75  70  83 SW10      29.93R
CENTRALIA*     CLOUDY    76  71  84 SW9       29.91S
SALEM*         CLOUDY    78  73  83 S9        29.92R HX  80
$$

ILZ067-068-072-073-078-083-087-091-071200-
SOUTHEAST ILLINOIS

CITY           SKY/WX    TMP DP  RH WIND       PRES   REMARKS
LAWRENCEVILLE  MOCLDY    76  73  91 S12       29.92S
FLORA*         MOCLDY    75  72  90 S6        29.92R
FAIRFIELD*     CLOUDY    76  73  90 S10       29.92R
HARRISBURG*    MOCLDY    75  74  95 S8        29.96S
ROBINSON*      MOCLDY    76  73  88 S9        29.91F
CARMI*         MOCLDY    75  69  80 S12       29.94R
$$

ABBREVIATIONS USED IN REMARKS
   TC - TEMPERATURE IN CELSIUS
  WCI - WIND CHILL INDEX
   HX - HEAT INDEX
  VSB - VISIBILITY
$$



USA.gov is the U.S. government's official web portal to all federal, state and local government web resources and services.